Погода Мирный

Хотите узнать прогноз погоды Мирный? Тогда Вам сюда: Погода Мирный

Поиск расширенной информации на нашем сайте:

Полезная информация:

Новости сайта



02.01.2020
Опубликован Долгосрочный прогноз погоды по городам России и ближнего зарубежья на январь 2020 года.
Карты: Прогноз на январь и февраль 2020 года, Сравнение прогнозируемой аномалии приземной температуры воздуха на январь 2020 года по разным моделям.




Погода Мирный - сегодня

Время (UTC), дата Ветер
(°,м/с) 
Видим.   Явления Облачность Т
(°С)
Тd
(°С)
f(%) Тe
(°С)
Pmin
(гПа)
dP
(гПа)
Po
(мм)
O2
(г/м3)
Тmin Tmax R s Состояние
почвы
21 29.11.20 260 (З) 50000 м  {снег}  6/6 480 м 
[St]
-19.6 -22.2 80 -25  1031.1  -0.7  737  322           
00 30.11.20 240 (ЮЗ) 5{10}  10 км  слаб. снег  10/4 300 м средняя 
[Frnb|As op]
-20.3 -22.9 80 -27  1030.4  -0.6  737  322  -22.1    0.2  22  равномерный
сухой снег
100% 
03 30.11.20 240 (ЮЗ) 10 км  слаб. снег  10/0 средняя 
[As op]
-19.9 -22.5 80 -24  1029.5  -1  736  321           
06 30.11.20 250 (З) 10 км  слаб. снег  10/4 660 м средняя 
[Sc|As op]
-18.4 -21 80 -24  1027.8  -1.2  735  319           
09 30.11.20 260 (З) 10 км  слаб. снег  10/6 720 м средняя 
[Sc|As op]
-18.6 -21.2 80 -25  1027.3  -0.7  734  319           
12 30.11.20 270 (З) 10 км  слаб. снег  10/4 600 м средняя 
[Sc|As op]
-19.2 -22.5 75 -26  1027.3  734  320    -18.2  0.5     
15 30.11.20 240 (ЮЗ) 20000 м  позёмок{снег}  10/0 средняя, верхняя 
[Ac trans|Cs]
-21.7 -24.2 80 -27  1027.2  -0.6  734  323           
18 30.11.20 240 (ЮЗ) 20000 м  {снег}  10/0 верхняя 
[Ci fib]
-23 -26.3 74 -29  1026.2  -1.2  733  324           
21 30.11.20 230 (ЮЗ) 20000 м    10/0 средняя 
[As op]
-21.9 -25.2 75 -26  1024.8  -1.1  732  322           
00 01.12.20 250 (З) 20000 м  позёмок  10/5 300 м средняя 
[St|As trans]
-20.9 -23.4 80 -28  1023.7  -0.9  732  321  -23.7    0.0  19  равномерный
сухой снег
100% 
03 01.12.20 240 (ЮЗ) 10 км  слаб. снег  10/5 420 м верхняя 
[St|Cs]
-20.1 -22.7 80 -27  1022.6  -0.8  731  320           
06 01.12.20 240 (ЮЗ) 4000 м  слаб. снег  10/0 средняя, верхняя 
[Ac As|Cs]
-18.4 -21 80 -24  1021.2  -1.1  730  317           
09 01.12.20 270 (З) 5{10}  20000 м  позёмок{снег}  10/0 средняя, верхняя 
[Ac trans|Cs]
-19 -21.6 80 -25  1020.9  -0.4  730  318           
12 01.12.20 260 (З) 6{12}  20000 м  слаб. снег  10/4 600 м средняя, верхняя 
[Sc|Ac trans|Cs]
-18.6 -21.2 80 -26  1019.4  -1.4  729  317    -18.1  0.2     
15 01.12.20 280 (З) 6-10{13}  10 км  слаб. ливневой снег  10/6 720 м кучево-дожд., средняя 
[Cb cap|As op]
-16.6 -19.2 80 -23  1018.9  -0.2  729  314           
21 01.12.20 270 (З) 5{10}  20000 м  позёмок{ливн. осадки}  10/0 средняя, верхняя 
[Ac trans|Cs]
-15.9 -17.8 85 -22  1020.7  0.5  730  314           
00 02.12.20 260 (З) 6{11}  10 км  слаб. снег{ливн. осадки}  10/0 средняя 
[As op]
-15 -14.7 100 -21  1019.8  -0.6  730  312  -18.7    0.2  20  равномерный
сухой снег
100% 
03 02.12.20 260 (З) 6{12}  1000 м  ливневой снег  10/4 600 м кучево-дожд., средняя 
[Cb cap|Ac As]
-13.5 -16.2 80 -20  1017.1  -2.2  728  310           
06 02.12.20 270 (З) 9-12{14}  2000 м  слаб. ливневой снег  10/4 600 м кучево-дожд., средняя 
[Cb cap|Ac As]
-12.6 -15.3 80 -20  1015.2  -1.7  727  308           
09 02.12.20 280 (З) 9-12{14}  10 км  слаб. ливневой снег  10/4 600 м кучево-дожд., верхняя 
[Cb cap|Ci fib]
-12.5 -15.2 80 -20  1015.3  0.1  727  308           
12 02.12.20 270 (З) 8-11{14}  10 км  слаб. ливневой снег  10/4 600 м кучево-дожд., верхняя 
[Cb cap|Ci fib]
-12.4 -15.1 80 -19  1015.7  0.4  727  308    -12.2     
15 02.12.20 270 (З) 8-12{14}  10 км  слаб. ливневой снег  10/4 600 м кучево-дожд., верхняя 
[Cb cap|Ci fib]
-11.8 -14.6 80 -19  1015  -0.7  727  307           
18 02.12.20 260 (З) 6{13}  10 км  слаб. ливневой снег  10/4 600 м кучево-дожд., верхняя 
[Cb cap|Ci fib]
-10.9 -13.7 80 -16  1012.7  -2  725  305           
21 02.12.20 250 (З) 9-12{14}  10 км  слаб. ливневой снег  10/4 600 м кучево-дожд., средняя 
[Cb cap|Ac As]
-10.6 -13.4 80 -18  1010.3  -2.1  724  304           
00 03.12.20 260 (З) 8-14{14}  4000 м  слаб. ливневой снег  10/8 630 м кучево-дожд., верхняя 
[Cb cap|Cs]
-10.9 -13.7 80 -17  1008.3  -2.1  722  304  -12.5    0.4  19  равномерный
сухой снег
100% 
Время (UTC), дата Ветер
(°,м/с) 
Видим.   Явления Облачность Т
(°С)
Тd
(°С)
f(%) Тe
(°С)
Pmin
(гПа)
dP
(гПа)
Po
(мм)
O2
(г/м3)
Тmin Tmax R s Состояние
почвы

Для получения пояснительной информации подведите курсор к названию столбца.

ПОГОДА Мирный - архив

Всё, что Вы хотите узнать о погоде Мирный - удобно и подробно!

Выберите нужную дату (начиная с 1 января 2019* года) и нажмите кнопку "Найти".
Будут отображены архивные сводки погоды по пункту Мирный, начиная с указанной даты.


Отображать данные в формате CSV (для использования в таблицах Excel)


Внимание! Наш архив погоды предназначен исключительно для личного некоммерческого использования в познавательных целях. Если Вам необходимы официальные справки о состоянии погоды (для производственных, юридических, коммерческих и т.п. целей), обращайтесь в органы Росгидромета.

*Примечание: данная дата относится к архиву по метеостанциям СССР (Россия, СНГ, Балтия).
Архив по метеостанциям Зарубежной Европы и Азии (кроме Китая) хранится 10 дней, по другим регионам земного шара (Китай, Африка, Америка, Австралия, Океания) - 1 день.

Мирный - район местоположения метеостанции


Название, широта, долгота, высота метеостанции:
Мирный 62.5°ш. 114.0°д. 352 м над ур. моря [Российская Федерация]

Дополнительная информация

В oтличие oт бoльшинства пoгoдных сайтoв мы публикуем пoдрoбную метеoинфoрмацию в детальнoм прoфессиoнальнoм фoрмате.

Характеристики температуры и влажнoсти вoздуха измеряются на высoте 2 м в тени вдали oт зданий и деревьев.
Скoрoсть ветра измеряется на высoте 10 м (на урoвне рoста челoвека скoрoсть ветра ниже в 1.5-2 раза). Если метеoстанция нахoдится в гoрoде или в лесу, тo скoрoсть ветра занижена на 2-4 м/с пo сравнению с oткрытым местoм. Скoрoсть ветра над акватoриями крупных рек и oзёр, а также на вершинах хoлмoв на 2-5 м/с выше, чем в oбычных услoвиях.
Атмoсфернoе давление в разных тoчках местнoсти мoжет значительнo oтличаться oт давления на метеoстанции, в зависимoсти oт услoвий рельефа (при пoдъёме на 10 м давление пoнижается примернo на 1 мм рт.ст.).